"Pseudo-MPEC" for C3727K2

Created 2020 Sep 23 8:07:05 UT using Find_Orb

Click here for an explanation of pseudo-MPECs

 
 Astrometry: 
     C3727K2  C2020 09 04.46283 05 24 49.39 +52 54 52.5    ~9KKM 21.8 GVNEOCPG96
     C3727K2  C2020 09 04.46796 05 24 50.62 +52 54 52.5    ~9KKM       VNEOCPG96
     C3727K2  C2020 09 04.47308 05 24 51.66 +52 54 54.6    ~9KKM 21.8 GVNEOCPG96
     C3727K2  C2020 09 16.44266 06 10 09.00 +52 54 38.1    ~9GBM 21.7 GVNEOCPG96
     C3727K2  C2020 09 16.44737 06 10 10.10 +52 54 37.2    ~9GBM 20.8 GVNEOCPG96
     C3727K2  C2020 09 16.45209 06 10 10.97 +52 54 36.6    ~9GBM 21.2 GVNEOCPG96
     C3727K2  C2020 09 16.46044 06 10 12.78 +52 54 35.0    ~9GBM 20.9 GVNEOCPG96
     C3727K2  C2020 09 17.49442 06 13 53.86 +52 51 52.7    ~9HCM 21.9 GVNEOCPV06
     C3727K2  C2020 09 17.49680 06 13 54.36 +52 51 52.2    ~9HCM 21.3 GVNEOCPV06
     C3727K2  C2020 09 17.49917 06 13 54.85 +52 51 51.8    ~9HCM 21.8 GVNEOCPV06
     C3727K2  C2020 09 17.50155 06 13 55.36 +52 51 51.6    ~9HCM 22.4 GVNEOCPV06
     C3727K2 2C2020 09 20P/-[08QDCsU$x;m#svO!AstrometryfpE4)GJredacted;EY^ncmJ04
     C3727K2 2C2020 09 20x#nO7WoclickTrbWk8ahereF$1F9:Gc9G.C:dBrXKNI(+\WZn#r/J04
     C3727K2 2C2020 09 20Ivfor@Ii[q,explanationNQ-6uqN2v[$aS;3/A+E\^n%s?2Hqs^J04

Station data:
(G96) Mt. Lemmon Survey  (N32.442754 W110.788720)  US/Arizona.  Observers T.
   A. Pruyne, B. M. Africano, E. J. Christensen, G. A. Farneth, D. C. Fuls,
   A. R. Gibbs, A. D. Grauer, H. Gröller, J. A. Johnson, R. A. Kowalski, S.
   M. Larson, G. J. Leonard, D. Rankin, R. L. Seaman, F. C. Shelly. 1.5-m
   reflector + 10K CCD.
(J04) ESA Optical Ground Station, Tenerife  (N28.300924 W16.511830)  Canary
   Islands (Spain).  Observer D. Abreu. Measurers M. Micheli, D. Koschny, E.
   Schwab, M. Busch, A. Knöfel. 1.0-m f/4.4 reflector + CCD.
(V06) Catalina Sky Survey-Kuiper  (N32.416847 W110.732550)  US/Arizona.
   Observers T. A. Pruyne, B. M. Africano, E. J. Christensen, G. A. Farneth,
   D. C. Fuls, A. R. Gibbs, A. D. Grauer, H. Gröller, J. A. Johnson, R. A.
   Kowalski, S. M. Larson, G. J. Leonard, D. Rankin, R. L. Seaman, F. C.
   Shelly. 1.55-m reflector + CCD.

Orbital elements:  C3727K2
   Perihelion 2020 Sep 11.690517 +/- 1.53 TT = 16:34:20 (JD 2459104.190517)
Epoch 2020 Sep 20.0 TT = JDT 2459112.5   Earth MOID: 0.7316   AutoNEOCP
M   1.67308350 +/- 0.7              (J2000 ecliptic)
n   0.20134628 +/- 0.0558           Peri.  112.66854 +/- 0.50
a   2.88297119 +/- 0.546            Node   288.67918 +/- 1.6
e   0.4605579 +/- 0.0873            Incl.   27.48338 +/- 0.28
P   4.90                   H 18.7   G  0.15   U 10.8  
q 1.55519597 +/- 0.0399    Q 4.21074641 +/- 1.12
From 14 observations 2020 Sept. 4-20; mean residual 0".36
Residuals in arcseconds: 
200904 G96  .28+  .20+    200916 G96  .66-  .10+    200917 V06  .17+  .07-    
200904 G96  .57+  .68-    200916 G96  .32-  .45-    200920 J04  .20-  .05+    
200904 G96  .84-  .56+    200917 V06  .09+  .09-    200920 J04  .19-  .24+    
200916 G96  .36-  .41+    200917 V06  .11+  .22-    200920 J04  .00   .16+    
200916 G96  .54+  .10+    200917 V06  .06+  .25-    

Ephemerides (geocentric):
Date (UTC) HH   RA              Dec         delta   r     elong  mag " sig PA
---- -- -- --  -------------   -----------  ------ ------ -----  --- ---- ---
2020 09 23 08  06 33 50.982   +52 29 23.33  1.2788 1.5590  85.3 21.8 11.6 101
2020 09 23 09  06 33 59.194   +52 29 11.25  1.2785 1.5590  85.3 21.8 11.6 101
2020 09 23 10  06 34 07.402   +52 28 59.13  1.2783 1.5591  85.3 21.8 11.7 101
2020 09 23 11  06 34 15.604   +52 28 46.99  1.2781 1.5591  85.3 21.8 11.8 101
2020 09 23 12  06 34 23.802   +52 28 34.81  1.2779 1.5591  85.3 21.8 11.9 101
2020 09 23 13  06 34 31.995   +52 28 22.59  1.2776 1.5591  85.3 21.8 11.9 101
2020 09 23 14  06 34 40.183   +52 28 10.35  1.2774 1.5592  85.4 21.8 12.0 101
2020 09 23 15  06 34 48.366   +52 27 58.07  1.2772 1.5592  85.4 21.8 12.1 101
2020 09 23 16  06 34 56.544   +52 27 45.76  1.2769 1.5592  85.4 21.8 12.1 101
2020 09 23 17  06 35 04.717   +52 27 33.41  1.2767 1.5593  85.4 21.8 12.2 101
2020 09 23 18  06 35 12.885   +52 27 21.03  1.2765 1.5593  85.4 21.8 12.3 101
2020 09 23 19  06 35 21.048   +52 27 08.62  1.2763 1.5593  85.4 21.8 12.4 101
2020 09 23 20  06 35 29.206   +52 26 56.18  1.2760 1.5593  85.4 21.8 12.4 101
2020 09 23 21  06 35 37.359   +52 26 43.70  1.2758 1.5594  85.5 21.8 12.5 101
2020 09 23 22  06 35 45.507   +52 26 31.19  1.2756 1.5594  85.5 21.8 12.6 101
2020 09 23 23  06 35 53.651   +52 26 18.65  1.2754 1.5594  85.5 21.8 12.7 101
2020 09 24 00  06 36 01.789   +52 26 06.07  1.2751 1.5595  85.5 21.8 12.7 101
2020 09 24 01  06 36 09.922   +52 25 53.47  1.2749 1.5595  85.5 21.8 12.8 101
2020 09 24 02  06 36 18.051   +52 25 40.83  1.2747 1.5595  85.5 21.8 12.9 101
2020 09 24 03  06 36 26.174   +52 25 28.15  1.2745 1.5595  85.6 21.8 13.0 101
2020 09 24 04  06 36 34.292   +52 25 15.45  1.2742 1.5596  85.6 21.8 13.0 101
2020 09 24 05  06 36 42.406   +52 25 02.71  1.2740 1.5596  85.6 21.8 13.1 101
2020 09 24 06  06 36 50.514   +52 24 49.94  1.2738 1.5596  85.6 21.8 13.2 101
2020 09 24 07  06 36 58.618   +52 24 37.14  1.2736 1.5597  85.6 21.8 13.3 101
2020 09 24 08  06 37 06.716   +52 24 24.30  1.2733 1.5597  85.6 21.8 13.4 101
2020 09 24 09  06 37 14.809   +52 24 11.44  1.2731 1.5597  85.6 21.8 13.4 101
2020 09 24 10  06 37 22.898   +52 23 58.54  1.2729 1.5597  85.7 21.8 13.5 101
2020 09 24 11  06 37 30.981   +52 23 45.61  1.2727 1.5598  85.7 21.8 13.6 101
2020 09 24 12  06 37 39.059   +52 23 32.64  1.2724 1.5598  85.7 21.8 13.7 101
2020 09 24 13  06 37 47.133   +52 23 19.65  1.2722 1.5598  85.7 21.7 13.8 101
2020 09 24 14  06 37 55.201   +52 23 06.62  1.2720 1.5599  85.7 21.7 13.8 101
2020 09 24 15  06 38 03.264   +52 22 53.56  1.2717 1.5599  85.7 21.7 13.9 101
2020 09 24 16  06 38 11.323   +52 22 40.47  1.2715 1.5599  85.7 21.7 14.0 102
2020 09 24 17  06 38 19.376   +52 22 27.34  1.2713 1.5600  85.8 21.7 14.1 102
2020 09 24 18  06 38 27.424   +52 22 14.19  1.2711 1.5600  85.8 21.7 14.2 102
2020 09 24 19  06 38 35.467   +52 22 01.00  1.2708 1.5600  85.8 21.7 14.3 102
2020 09 24 20  06 38 43.505   +52 21 47.78  1.2706 1.5600  85.8 21.7 14.3 102
2020 09 24 21  06 38 51.538   +52 21 34.52  1.2704 1.5601  85.8 21.7 14.4 102
2020 09 24 22  06 38 59.566   +52 21 21.24  1.2702 1.5601  85.8 21.7 14.5 102
2020 09 24 23  06 39 07.589   +52 21 07.92  1.2699 1.5601  85.8 21.7 14.6 102
2020 09 25 00  06 39 15.607   +52 20 54.58  1.2697 1.5602  85.9 21.7 14.7 102
2020 09 25 01  06 39 23.620   +52 20 41.20  1.2695 1.5602  85.9 21.7 14.8 102
2020 09 25 02  06 39 31.627   +52 20 27.79  1.2693 1.5602  85.9 21.7 14.8 102
2020 09 25 03  06 39 39.630   +52 20 14.34  1.2690 1.5603  85.9 21.7 14.9 102
2020 09 25 04  06 39 47.627   +52 20 00.87  1.2688 1.5603  85.9 21.7 15.0 102
2020 09 25 05  06 39 55.620   +52 19 47.36  1.2686 1.5603  85.9 21.7 15.1 102
2020 09 25 06  06 40 03.607   +52 19 33.83  1.2683 1.5604  86.0 21.7 15.2 102
2020 09 25 07  06 40 11.590   +52 19 20.26  1.2681 1.5604  86.0 21.7 15.3 102